Home > Weather > Göttingen > Past weeks

Flag for Germany Weather for the Past 2 Weeks in Göttingen, Lower Saxony, Germany

Now
37 °F

Passing clouds.


Feels Like: 32 °F
Forecast: 32 / 40 °F
Wind: 7 mph from Southwest

Location: Kassel / Calden

Current Time: Feb 11, 2016 at 7:20:50 PM

Latest Report: Feb 11, 2016 at 6:50 PM


Visibility: N/A

Pressure: 29.65 "Hg

Humidity: 75%

Dew point: 30 °F

Location of GöttingenLocation

Historic Weather in Göttingen — Graph

°F

Göttingen Temperature Yesterday

Maximum temperature yesterday: 39 °F (at 12:50 PM)
Minimum temperature yesterday: 36 °F (at 7:20 AM)
Average temperature yesterday: 37 °F

High & Low Weather Summary for the Past Weeks

 TemperatureHumidityPressure
High52 °F (Jan 27, 7:50 PM)100% (Feb 1, 7:20 AM)30.30 "Hg (Feb 1, 7:20 AM)
Low34 °F (Feb 3, 5:50 PM)49% (Jan 28, 2:50 PM)28.88 "Hg (Feb 9, 5:50 PM)
Average43 °F81%29.81 "Hg
* Reported Jan 27 5:20 PM — Feb 11 5:50 PM, Göttingen, Weather by CustomWeather, © 2016

Note: Actual official high and low records may vary slightly from our data, if they occured in-between our weather recording intervals... More about our weather records

Advertising

Göttingen Weather History for the Previous 24 Hours

 ConditionsComfort  
Time TempWeatherWind HumidityBarometerVisibility
5:50 PM
Thu, Feb 11
37 °FPassing clouds.8 mph75%29.65 "HgN/A
5:20 PM39 °FPartly sunny.7 mph70%29.65 "HgN/A
4:50 PM39 °FPartly sunny.7 mph70%29.62 "HgN/A
4:20 PM41 °FPartly sunny.10 mph61%29.62 "HgN/A
3:50 PM41 °FPartly sunny.12 mph61%29.62 "HgN/A
3:20 PM41 °FPartly sunny.17 mph66%29.62 "HgN/A
2:50 PM41 °FPartly sunny.13 mph66%29.62 "HgN/A
2:20 PM41 °FPartly sunny.15 mph61%29.62 "HgN/A
1:50 PM41 °FBroken clouds.13 mph66%29.62 "HgN/A
1:20 PM41 °FBroken clouds.15 mph61%29.62 "HgN/A
12:50 PM41 °FPartly sunny.18 mph66%29.65 "HgN/A
12:20 PM41 °FPartly sunny.14 mph66%29.62 "HgN/A
11:50 AM39 °FPartly sunny.9 mph81%29.65 "HgN/A
11:20 AM37 °FBroken clouds.6 mph93%29.62 "HgN/A
10:50 AM37 °FLight rain. Broken clouds.8 mph87%29.62 "HgN/A
10:20 AM37 °FBroken clouds.9 mph87%29.62 "HgN/A
9:50 AM37 °FPartly sunny.8 mph81%29.62 "HgN/A
9:20 AM37 °FPartly sunny.6 mph81%29.62 "HgN/A
8:50 AM37 °FPartly sunny.12 mph81%29.59 "HgN/A
8:20 AM36 °FBroken clouds.10 mph87%29.59 "HgN/A
7:50 PM
Wed, Feb 10
37 °FMostly cloudy.10 mph87%29.39 "HgN/A
7:20 PM37 °FMostly cloudy.9 mph93%29.39 "HgN/A
Weather by CustomWeather, © 2016

See weather overviewHow to use our weather pages